Regional Weather Roundup
Issued by NWS

Home | Current Version | Previous Version | Graphics & Text | Print | Product List | Glossary Off
Versions: 1 2 3 4 5 6 7 8 9 10 11 12 13 14 15 16 17 18 19 20 21 22 23 24 25 26 27 28 29 30 31 32 33 34 35 36 37 38 39 40 41 42 43 44 45 46 47 48 49 50

170
ASUS43 KTOP 261259
RWRKS

WEATHER ROUNDUP FOR KANSAS
NATIONAL WEATHER SERVICE GOODLAND KS
700 AM CST SUN FEB 26 2017

NOTE:  "FAIR" INDICATES FEW OR NO CLOUDS BELOW 12,000 FEET WITH NO
SIGNIFICANT WEATHER AND/OR OBSTRUCTIONS TO VISIBILITY.

KSZ001>006-013>018-027>032-041>047-261400-
NORTHWEST KANSAS

CITY           SKY/WX    TMP DP  RH WIND       PRES   REMARKS
GOODLAND       CLEAR     11   5  77 W6        29.87R
HAYS           CLEAR     18  12  77 N3        29.92R
HILL CITY      CLEAR     12   8  84 NW5       29.91R
RUSSELL        CLEAR     23  14  68 E8        29.91R
$$

KSZ061>065-074>080-084>089-261400-
SOUTHWEST KANSAS

CITY           SKY/WX    TMP DP  RH WIND       PRES   REMARKS
DODGE CITY     PTCLDY    19  13  77 NW8       29.86R
ELKHART          N/A     23   0  37 W6          N/A
GARDEN CITY    PTCLDY    15   9  76 N7        29.86R
GREAT BEND     PTCLDY    22  16  78 N8        29.91R
LIBERAL        PTCLDY    25  10  54 NW8       29.84R
$$

KSZ066>073-081>083-090>101-261400-
SOUTHEAST KANSAS

CITY           SKY/WX    TMP DP  RH WIND       PRES   REMARKS
CHANUTE        CLOUDY    36  20  52 SE3       30.02R
COFFEYVILLE    CLOUDY    37  23  56 SE5       30.02S
HUTCHINSON     CLOUDY    32  20  61 SE12      29.91F WCI  23
MEDICINE LODGE   N/A     31  20  63 SE8       29.89F
NEWTON         CLOUDY    32  21  64 SE12      29.93F WCI  23
PARSONS        CLOUDY    38  20  48 SE3       30.02S
WICHITA INTL   CLOUDY    34  21  59 SE10      29.92F WCI  26
WICHITA JABRA  CLOUDY    34  21  59 SE8       29.94S
WINFIELD       CLOUDY    35  21  56 E5        29.96F
$$

KSZ007>012-019>026-033>040-048>060-102>105-261400-
NORTHEAST KANSAS

CITY           SKY/WX    TMP DP  RH WIND       PRES   REMARKS
CONCORDIA      CLOUDY    32  22  66 S5        29.95R
EMPORIA        CLOUDY    32  32 100 E6        29.97F
LAWRENCE       CLOUDY    38  29  70 S13       30.03R WCI  30
MANHATTAN      CLOUDY    35  32  88 CALM      29.99S
OLATHE IND     CLOUDY    37  21  52 SW15      30.03R WCI  28
OLATHE EXE     CLOUDY    38  25  59 SW9       30.02S
SALINA         PTCLDY    32  31  96 E3        29.95S FOG
TOPEKA BILLARD CLOUDY    37  29  72 S8        30.02R
TOPEKA FORBES  CLOUDY    36  27  69 SW8       30.01R
$$




USA.gov is the U.S. government's official web portal to all federal, state and local government web resources and services.